Simultaneous Nadir Overpasses (SNOs) Predictions

Prediction of SNOs near US between AQUA and NPP Satellite Orbit:

Table of predicted SNOs near US for the next 10.0 days since TLE Epoch: 11/25/2012
Index Date (AQUA) Time (AQUA) AQUA Lat,Lon Date (NPP) Time (NPP) NPP Lat,Lon Distance(km) Time Diff (sec)
1 11/29/2012 06:31:27 41.16, -66.85 11/29/2012 06:29:59 41.51, -68.96 181.27 88
2 11/29/2012 08:07:53 49.90, -88.35 11/29/2012 08:08:55 50.40, -90.83 185.26 62
3 11/29/2012 09:46:46 49.90,-113.07 11/29/2012 09:50:23 50.50,-116.15 229.71 217
4 12/01/2012 19:06:00 49.97, -92.53 12/01/2012 18:59:11 49.62, -94.38 138.28 409
5 12/01/2012 20:44:53 49.97,-117.25 12/01/2012 20:40:39 49.52,-119.71 183.60 254




NCC Satellite Simultaneous Nadir Overpasses (SNOs) Prediction Service
